This demonstration page uses our WeatherBlox Daily Observations layout. Learn more.

Left ArrowRight Arrow

Hourly Observations for May 22, 2022

Temp ( °F °C ) Dew Point ( °F °C ) Humidity (%) Winds ( mph kmh ) Pressure ( in mb ) Visibility ( mi km ) Precip ( " mm )
12:56 am 00:56 Clear 43 6.1 30 -1.1 60 60 NW 3 6 30.34 1027 10 16 0.00 0.00
1:56 am 01:56 Clear 41 5 29 -1.7 62 62 NW 7 11 30.33 1027 10 16 0.00 0.00
2:56 am 02:56 Clear 37 2.8 29 -1.7 73 73 NW 7 11 30.34 1028 10 16 0.00 0.00
3:56 am 03:56 Clear 37 2.8 28 -2.2 70 70 NW 9 15 30.34 1027 10 16 0.00 0.00
4:56 am 04:56 Clear 36 2.2 28 -2.2 73 73 NW 5 7 30.36 1028 10 16 0.00 0.00
5:56 am 05:56 Clear 37 2.8 28 -2.2 70 70 Calm 30.39 1029 10 16 0.00 0.00
6:56 am 06:56 Sunny 37 2.8 28 -2.2 70 70 Calm 30.42 1030 10 16 0.00 0.00
7:56 am 07:56 Sunny 44 6.7 32 0 63 63 Calm 30.44 1031 10 16 0.00 0.00
8:56 am 08:56 Sunny 50 10 31 -0.6 48 48 SSW 5 7 30.43 1031 10 16 0.00 0.00
9:56 am 09:56 Sunny 56 13.3 32 0 40 40 SSW 7 11 30.43 1030 10 16 0.00 0.00
10:56 am 10:56 Sunny 58 14.4 31 -0.6 36 36 SSW 10 17 30.41 1030 10 16 0.00 0.00
11:56 am 11:56 Sunny 61 16.1 29 -1.7 30 30 VRB 6 9 30.40 1029 10 16 0.00 0.00
12:56 pm 12:56 Sunny 64 17.8 28 -2.2 26 26 WSW 8 13 30.37 1029 10 16 0.00 0.00
1:56 pm 13:56 Sunny 64 17.8 30 -1.1 28 28 S 8 13 30.34 1028 10 16 0.00 0.00
2:56 pm 14:56 Sunny 65 18.3 29 -1.7 26 26 VRB 6 9 30.31 1027 10 16 0.00 0.00
3:56 pm 15:56 Mostly Sunny 66 18.9 28 -2.2 24 24 VRB 3 6 30.29 1026 10 16 0.00 0.00
4:56 pm 16:56 Mostly Sunny 66 18.9 28 -2.2 24 24 WSW 7 11 30.27 1025 10 16 0.00 0.00
5:56 pm 17:56 Partly Cloudy 66 18.9 28 -2.2 24 24 SE 7 11 30.25 1024 10 16 0.00 0.00
6:56 pm 18:56 Mostly Sunny 65 18.3 29 -1.7 26 26 S 9 15 30.24 1024 10 16 0.00 0.00
7:56 pm 19:56 Mostly Cloudy 64 17.8 28 -2.2 26 26 SSE 12 19 30.23 1024 10 16 0.00 0.00
8:56 pm 20:56 Cloudy 61 16.1 30 -1.1 31 31 SE 10 17 30.23 1024 10 16 0.00 0.00
9:56 pm 21:56 Cloudy 59 15 33 0.6 38 38 SSE 10 17 30.25 1024 10 16 0.00 0.00
10:56 pm 22:56 Cloudy 58 14.4 35 1.7 42 42 S 8 13 30.27 1025 10 16 0.00 0.00
11:56 pm 23:56 Mostly Cloudy 56 13.3 35 1.7 46 46 S 8 13 30.28 1025 10 16 0.00 0.00

Powered by AerisWeather